Regional Weather Roundup
Issued by NWS

Home | Current Version | Previous Version | Text Only | Print | Product List | Glossary On
Versions: 1 2 3 4 5 6 7 8 9 10 11 12 13 14 15 16 17 18 19 20 21 22 23 24 25 26 27 28 29 30 31 32 33 34 35 36 37 38 39 40 41 42 43 44 45 46 47 48 49 50
000
ASUS43 KDTX 230201
RWRMI
MICHIGAN HOURLY REGIONAL WEATHER ROUNDUP
NATIONAL WEATHER SERVICE DETROIT/PONTIAC MI
1000 PM EDT SAT JUL 22 2017

NOTE: "FAIR" INDICATES FEW OR NO CLOUDS BELOW 12,000 FEET WITH NO
SIGNIFICANT WEATHER AND/OR OBSTRUCTION TO VISIBILITY.

MIZ047>049-052>055-059>063-066>070-074>076-081>083-230300-
SOUTHEAST LOWER MICHIGAN

CITY           SKY/WX    TMP DP  RH WIND       PRES   REMARKS
ADRIAN         CLEAR     75  69  81 W6        29.81R
ALMA           CLOUDY    70  67  89 N8        29.84R
ANN ARBOR      MOCLDY    77  71  82 NW10      29.80R
BAD AXE        CLOUDY    67  64  92 NE3       29.83R
CARO           CLOUDY    67  66  94 N6        29.81R FOG
DETROIT CITY   PTCLDY    77  71  82 N7        29.78R
DETROIT        MOCLDY    77  71  82 NW6       29.79R
FLINT          MOCLDY    71  68  90 N7        29.80R
GROSSE ILE     MOCLDY    78  70  77 NW5       29.77R
HILLSDALE      PTCLDY    72  66  83 NW6       29.83R
HOWELL         PTCLDY    70  68  92 W3        29.81R

CITY           SKY/WX    TMP DP  RH WIND       PRES   REMARKS
JACKSON        PTCLDY    74  68  81 W6        29.82R
LAMBERTVILLE   CLEAR     73  70  89 CALM      29.79R
LANSING        PTCLDY    73  67  81 N5        29.82R
LAPEER         CLOUDY    72  69  92 N3        29.80R
MASON          CLOUDY    72  68  88 CALM      29.82R
MONROE         CLEAR     74  70  87 CALM      29.78R
PONTIAC        MOCLDY    73  70  90 W5        29.79R
PORT HOPE        N/A     70  65  84 NE13      29.81R
PORT HURON     CLOUDY    72  70  94 NW3       29.79R FOG
TRI CITIES     CLOUDY    70  70 100 N8        29.82R FOG
MIDLAND        CLOUDY    69  68  96 CALM      29.83R
TROY           MOCLDY    76  71  82 NW3       29.80R
SAGINAW HB     CLOUDY    68  66  94 N5        29.81R FOG
$$
MIZ043>046-050>051-056>058-064>065-071>073-077>080-230300-
SOUTHWEST LOWER MICHIGAN

CITY           SKY/WX    TMP DP  RH WIND       PRES   REMARKS
BATTLE CREEK   PTCLDY    72  69  90 W7        29.83R
BENTON HARBOR  CLEAR     71  67  87 CALM      29.82R
BIG RAPIDS     MOCLDY    71  67  84 SE8       29.81S
COLDWATER      PTCLDY    72  71  98 W3        29.83R
FREMONT        CLOUDY    71  69  92 W5        29.81R
HOLLAND        FOG       69  67  93 W5        29.84R VSB 3/4
GRAND RAPIDS   MOCLDY    72  70  93 W7        29.82R FOG
IONIA          MOCLDY    72  69  92 CALM      29.82R
KALAMAZOO      PTCLDY    73  67  81 NW5       29.83R
LUDINGTON      LGT RAIN  65  65 100 CALM      29.80R
MARSHALL       PTCLDY    73  71  93 W6        29.82R
MUSKEGON       PTCLDY    69  67  93 CALM      29.82R
SOUTH HAVEN    CLOUDY    71  69  95 CALM      29.83R
$$
MIZ016>042-230300-
NORTHERN LOWER MICHIGAN

CITY           SKY/WX    TMP DP  RH WIND       PRES   REMARKS
ALPENA         CLOUDY    68  67  96 E5        29.85R
BEAVER ISLAND  MOCLDY    69  65  88 E5        29.81S
BELLAIRE       CLOUDY    72  65  79 CALM      29.80R
CADILLAC       PTCLDY    72  67  84 E6        29.82S
CHARLEVOIX     CLOUDY    74  67  76 E5        29.83R
FRANKFORT      CLOUDY    69  66  93 CALM      29.80R
GAYLORD        PTCLDY    69  63  81 SE8       29.85R
GRAYLING       MOCLDY    68  63  84 E6        29.85R
HARBOR SPRINGS PTCLDY    71  67  88 NE7       29.82R
HOUGHTON LAKE  PTCLDY    66  63  90 E5        29.84R
MANISTEE       CLEAR     68  66  93 CALM      29.79F
OSCODA         CLOUDY    68  66  91 W6        29.83S
PELLSTON       MOCLDY    69  66  90 N5        29.83R
ROGERS CITY    CLOUDY    70  64  80 S5        29.84R
TRAVERSE CITY  MOCLDY    74  64  71 CALM      29.78S
$$
MIZ007>008-015-230300-
EASTERN UPPER MICHIGAN

CITY           SKY/WX    TMP DP  RH WIND       PRES   REMARKS
KINROSS        CLOUDY    69  62  78 E5        29.84R
MACKINAC ISLAN CLOUDY    67  67 100 E8        29.83R
NEWBERRY       CLOUDY    68  67  95 SE6       29.82S
S. S. MARIE    CLOUDY    69  58  67 E6        29.84R
MUNISING         N/A     71  66  84 S3        29.79S
$$
MIZ004>006-011>014-085-230300-
CENTRAL UPPER MICHIGAN

CITY           SKY/WX    TMP DP  RH WIND       PRES   REMARKS
MANISTIQUE     CLOUDY    67  61  80 E6        29.80F
ESCANABA       RAIN      68  65  90 SE3       29.79R
MENOMINEE      CLOUDY    72  66  81 S7        29.78R
SAWYER-GWINN   CLEAR     64  63  94 E5        29.81S
$$
MIZ001>003-009>011-084-230300-
WESTERN UPPER MICHIGAN

CITY           SKY/WX    TMP DP  RH WIND       PRES   REMARKS
IRON MOUNTAIN  TSTM      69  64  84 E17G25    29.80R VSB 1/2
HOUGHTON       PTCLDY    59  53  80 CALM      29.80F
COPPER HARBOR    N/A     58  52  80 CALM      29.80S
IRONWOOD       PTCLDY    64  60  87 E3        29.82S
$$

ABBREVIATIONS USED IN REMARKS
   TC - TEMPERATURE IN CELSIUS
  WCI - WIND CHILL INDEX
   HX - HEAT INDEX
  VSB - VISIBILITY




USA.gov is the U.S. government's official web portal to all federal, state and local government web resources and services.